• MPC Preparation (Info)

  • MPEC 2004-B82 : S/2003 J 22

    The following Minor Planet Electronic Circular may be linked-to from your own Web pages, but must not otherwise be redistributed electronically.

    A form allowing access to any MPEC is at the bottom of this page.


    Read MPEC 2004-B81 Read MPEC 2004-C01


    M.P.E.C. 2004-B82                                Issued 2004 Jan. 31, 23:30 UT
    
         The Minor Planet Electronic Circulars contain information on unusual
             minor planets and routine data on comets.  They are published
       on behalf of Commission 20 of the International Astronomical Union by the
              Minor Planet Center, Smithsonian Astrophysical Observatory,
                              Cambridge, MA 02138, U.S.A.
    
             Supported in part by the Steven and Michele Kirsch Foundation
                 Prepared using the Tamkin Foundation Computer Network
    
                                  MPC@CFA.HARVARD.EDU
              URL http://cfa-www.harvard.edu/iau/mpc.html  ISSN 1523-6714
    
                                      S/2003 J 22
    
                               Revision to MPEC 2004-B41
    
    Additional Observations:
        SK03J220  C2002 01 11.36270 06 42 44.03 +22 21 08.9                 EB082568
        SK03J220  C2002 01 11.37910 06 42 43.57 +22 21 09.7                 EB082568
        SK03J220  C2002 01 11.39726 06 42 43.03 +22 21 10.9                 EB082568
        SK03J220  C2002 01 15.33944 06 40 51.44 +22 25 08.7          22.8 R EB082568
        SK03J220  C2002 01 15.37575 06 40 50.35 +22 25 11.0          22.7 R EB082568
    
    Observer details:
    568 Mauna Kea.  Observers S. S. Sheppard, D. C. Jewitt.  Measurer S. S.
        Sheppard.  8.3-m Subaru Telescope + CCD, 2.2-m University of Hawaii
        reflector + CCD.
    
    Orbital elements:
    S/2003 J 22
    Epoch 2003 Dec. 27.0 TT = JDT 2453000.5                 MPC
    M  40.64889              (2000.0)            P               Q
    n   0.56619656     Peri.  318.60614     -0.60968652     -0.78586011
    a   0.1424932      Node   192.30922     -0.53730180     +0.31377545
    e   0.2383310      Incl.  150.96450     -0.58274276     +0.53288729
    P   1.74           H   16.3           P/d   635.82
    Residuals in seconds of arc
    020111 568  0.7-  0.2+    030226 568  0.2-  0.5-    030327 568  0.0   0.2+
    020111 568  0.3-  0.0     030227 568  0.0   0.2+    030425 568  0.1+  0.0
    020111 568  0.3-  0.1+    030227 568  0.0   0.2+    030425 568  0.0   0.2-
    020115 568  1.0+  0.1-    030228 568  0.4+  0.6+    030425 568  0.2+  0.2-
    020115 568  0.3+  0.1-    030304 568  0.4+  0.5-    030427 568  0.5-  0.3+
    030209 568  0.0   0.1-    030304 568  0.0   0.9-    030427 568  0.1-  0.1-
    030209 568  0.3-  0.2+    030326 568  0.1+  0.4+    030427 568  0.1-  0.1-
    030209 568  0.1-  0.3+    030327 568  0.2+  0.3+
    030226 568  0.2-  0.3-    030327 568  0.1+  0.4+
    
    Ephemeris:
        S/2003 J 22                                                  q = 0.1085
    Date    TT    R. A. (2000) Decl.     Delta     r_J   dR.A. ("/m)  dDecl.m1"/')
    2004 01 26    11 17.59   +06 31.4    4.767    0.131   560-/0.63-  2134+/ 35.6+
    2004 02 05    11 14.16   +07 01.2    4.668    0.135   946-/1.06-  2631+/ 43.8+
    2004 02 15    11 09.87   +07 35.4    4.595    0.138  1318-/1.48-  3093+/ 51.5+
    2004 02 25    11 04.96   +08 12.1    4.550    0.141  1672-/1.88-  3509+/ 58.5+
    2004 03 06    10 59.77   +08 49.0    4.536    0.145  2007-/2.26-  3871+/ 64.5+
    2004 03 16    10 54.63   +09 23.8    4.552    0.148  2323-/2.62-  4175+/ 69.6+
    2004 03 26    10 49.88   +09 54.4    4.597    0.151  2619-/2.95-  4418+/ 73.6+
    2004 04 05    10 45.84   +10 19.2    4.670    0.154  2895-/3.27-  4603+/ 76.7+
    2004 04 15    10 42.72   +10 37.1    4.765    0.157  3148-/3.56-  4735+/ 78.9+
    2004 04 25    10 40.69   +10 47.4    4.880    0.160  3376-/3.82-  4819+/ 80.3+
    2004 05 05    10 39.83   +10 50.0    5.009    0.162  3576-/4.05-  4863+/ 81.0+
    2004 05 15    10 40.14   +10 45.0    5.148    0.164  3746-/4.24-  4872+/ 81.2+
    2004 05 25    10 41.60   +10 32.9    5.292    0.167  3883-/4.39-  4851+/ 80.9+
    2004 06 04    10 44.14   +10 14.1    5.437    0.169  3986-/4.50-  4805+/ 80.1+
    2004 06 14    10 47.67   +09 49.2    5.580    0.170  4054-/4.57-  4735+/ 78.9+
    2004 06 24    10 52.08   +09 18.8    5.717    0.172  4085-/4.60-  4645+/ 77.4+
    2004 07 04    10 57.27   +08 43.4    5.845    0.173  4080-/4.59-  4534+/ 75.6+
    2004 07 14    11 03.15   +08 03.6    5.962    0.174  4038-/4.53-  4403+/ 73.4+
    2004 07 24    11 09.61   +07 19.9    6.066    0.175  3960-/4.44-  4253+/ 70.9+
    2004 08 03    11 16.56   +06 32.9    6.154    0.176  3848-/4.30-  4083+/ 68.0+
    2004 08 13    11 23.92   +05 43.1    6.226    0.176  3701-/4.13-  3893+/ 64.9+
    
    Brian G. Marsden             (C) Copyright 2004 MPC           M.P.E.C. 2004-B82
    

    Read MPEC 2004-B81 Read MPEC 2004-C01


    MPEC number:

    Enter an MPEC number in one of the following forms:

    • 1997-B01 (the full form)
    • J97B01 (the packed version of the full form)
    • B01 (the abbreviated form)